Regional Weather Roundup
Issued by NWS Upton, NY

Current Version | Previous Version | Graphics & Text | Print | Product List | Glossary On
Versions: 1 2 3 4 5 6 7 8 9 10 11 12 13 14 15 16 17 18 19 20 21 22 23 24 25 26 27 28 29 30 31 32 33 34 35 36 37 38 39 40 41 42 43 44 45 46 47 48 49 50
000
ASUS41 KOKX 190005
RWROKX

REGIONAL WEATHER ROUNDUP
NATIONAL WEATHER SERVICE NEW YORK NY
800 PM EDT THU SEP 18 2014

NOTE: "FAIR" INDICATES FEW OR NO CLOUDS BELOW 12,000 FEET WITH NO
SIGNIFICANT WEATHER AND/OR OBSTRUCTIONS TO VISIBILITY.

NYZ071-072-176-178-NJZ106-104-190100-
NEW YORK CITY METRO AREA


CITY           SKY/WX    TMP DP  RH WIND       PRES   REMARKS
CENTRAL PARK   CLEAR     68  43  40 CALM      30.05R
LAGUARDIA APRT PTCLDY    71  48  43 NE6       30.01R
KENNEDY INTL   PTCLDY    68  53  58 S8        30.03R
NEWARK/LIBERTY PTCLDY    72  44  36 NW9       30.02R
BRNX BOT. GARD   N/A     64  45  48 N1        30.04R
TETERBORO      CLEAR     70  42  36 CALM      30.01R
$$

NYZ177-179-078>081-190100-
LONG ISLAND NEW YORK

CITY           SKY/WX    TMP DP  RH WIND       PRES   REMARKS
FARMINGDALE    CLEAR     67  54  63 S6        30.02R
ISLIP          PTCLDY    65  54  67 CALM      30.01R
SHIRLEY        CLEAR     62  51  67 CALM      30.03R
WESTHAMPTON    CLEAR     56  44  64 CALM      30.03R
MONTAUK POINT    N/A     65  54  67 CALM      30.03R
$$

NYZ052-065-067-190100-
HUDSON VALLEY

CITY           SKY/WX    TMP DP  RH WIND       PRES   REMARKS
WHITE PLAINS   PTCLDY    62  50  64 CALM      30.02R
NEWBURGH       PTCLDY    61  52  72 NE8       30.05
MONTGOMERY     MOCLDY    63  48  58 NW7       30.04R
POUGHKEEPSIE   MOCLDY    61  54  77 CALM      30.03R
ALBANY         PTCLDY    53  46  77 N8        30.11R
$$

NJZ001-105-106-008-010-013-015-019>022-104-190100-
NEW JERSEY

CITY           SKY/WX    TMP DP  RH WIND       PRES   REMARKS
NEWARK/LIBERTY PTCLDY    72  44  36 NW9       30.02R
TETERBORO      CLEAR     70  42  36 CALM      30.01R
CALDWELL       CLEAR     63  48  58 CALM      30.03R
MORRISTOWN     CLEAR     57  52  82 NW3       30.03R
SOMERVILLE     NOT AVBL
LINDEN         FAIR      73  50  43 CALM      30.04R
SUSSEX         CLEAR     57  49  74 CALM      30.04R
ANDOVER          N/A     54  50  86 CALM      30.05R
TRENTON        MOCLDY    65  52  62 N5        30.02R
MILLVILLE      MOCLDY    62  59  90 SW3       30.04R
ATLANTIC CITY  CLOUDY    67  56  67 CALM      30.04R
WRIGHTSTOWN    PTCLDY    61  56  83 SW3       30.01R
TOMS RIVER     CLOUDY    63  55  77 CALM      30.04R
BELMAR         CLEAR     64  52  63 CALM      30.03R
$$

PAZ047>061-062-071-190100-
EASTERN PENNSYLVANIA

CITY           SKY/WX    TMP DP  RH WIND       PRES   REMARKS
PHILADELPHIA   PTCLDY    69  55  60 SW8       30.04R
ALLENTOWN      CLEAR     64  42  44 N3        30.04R
SCRANTON       CLEAR     60  44  55 VRB3      30.07R
$$

CTZ002-004>006-009-010-012-RIZ004-006-007-MAZ004-011-015-190100-
SOUTHERN NEW ENGLAND
 IN CT

CITY           SKY/WX    TMP DP  RH WIND       PRES   REMARKS
BRADLEY INTL   PTCLDY    62  49  62 N7        30.03R
HARTFORD       CLEAR     65  48  54 VRB6      30.02R
DANBURY        CLEAR     56  51  84 SW6       30.05R
WTRBRY/OXFORD  CLEAR     57  45  62 N7        30.04R
BRIDGEPORT     CLEAR     69  48  47 CALM      30.02R
MERIDEN        CLEAR     57  49  74 CALM      30.03R
NEW HAVEN      CLEAR     60  47  61 CALM      30.02R
CHESTER        FAIR      59  52  77 CALM      30.03R
GROTON         CLEAR     64  53  67 CALM      30.01R
WILLIMANTIC    CLEAR     60  53  77 CALM      30.03R

 IN RI

CITY           SKY/WX    TMP DP  RH WIND       PRES   REMARKS
PROVIDENCE     PTCLDY    67  48  50 NW6       30.02R
BLOCK ISLAND   CLEAR     66  55  68 W7        30.02R
WESTERLY       CLEAR     61  51  70 CALM      30.02R

 IN MA

CITY           SKY/WX    TMP DP  RH WIND       PRES   REMARKS
BOSTON         MOCLDY    68  48  48 N9        30.03R
WORCESTER      CLOUDY    61  48  62 N10       30.05R
WESTFIELD      CLEAR     59  51  75 N5        30.04R
PROVINCETOWN   MOCLDY    59  52  77 CALM      30.02R
NANTUCKET      CLEAR     55  48  77 CALM      30.02R
$$

ANZ330-335-338-340-345-350-353-355-190100-
COASTAL MARINE OBSERVATIONS


STATION/POSITION TIME  SKY/WX   TEMP    WIND        PRES    VSBY  WAVE
                                AIR SEA DIR/SP/G                  HT/PER
                 (UTC)          (F)     (DEG/KT/KT) (MB)    (MI)  (FT/S)
NY HARB ENTRANCE 0000            70 71  210/ 10/ 12 1016.7          2/12
4S FIRE IS       0000               71                N/A           3/11
23SW MTP         0000                                 N/A           2/11
HUDSON CANYON    0000            69 74  350/  8/ 10 1016.3          3/11
EXECUTION ROCKS  0000            71 71   30/  8/ 10   N/A
WESTERN LI SOUND 0000            71      30/  6/  6   N/A           0
CENTRAL LI SOUND 2300            71 71  340/  6/  8   N/A           1
EASTERN LI SOUND 2300            69 68  280/  8/ 10   N/A
ROBBINS REEF     0000            72     350/  8/  9 1015.1
$$


>>>>>>>>>>>>>>>>>>>>>>>>>>>> KEY <<<<<<<<<<<<<<<<<<<<<<<<<<<
>                                                          <
>     SKY/WX - SKY CONDITION/PRESENT WEATHER               <
>     TMP    - TEMPERATURE IN FAHRENHEIT                   <
>     DP     - DEWPOINT IN FAHRENHEIT                      <
>     RH     - RELATIVE HUMIDITY IN PERCENT                <
>     WIND   - DIRECTION AND SPEED IN MPH                  <
>     PRES   - MEAN SEA LEVEL PRESSURE IN INCHES OF HG     <
>     WCI    - WIND CHILL INDEX                            <
>     VSB    - VISIBILITY IN MILES                         <
>     HX     - HEAT INDEX                                  <
>     TC     - TEMPERATURE IN CELSIUS                      <
>     VRB    - VARIABLE WIND DIRECTION                     <
>                                                          <
>>>>>>>>>>>>>>>>>>>>>>>>>>>> KEY <<<<<<<<<<<<<<<<<<<<<<<<<<<





USA.gov is the U.S. government's official web portal to all federal, state and local government web resources and services.